This demonstration page uses our WeatherBlox Daily Observations layout. Learn more.

Left ArrowRight Arrow

34.74481, -87.66753

Hourly Observations for July 9, 2020

Temp ( °F °C ) Dew Point ( °F °C ) Humidity (%) Winds ( mph kmh ) Pressure ( in mb ) Visibility ( mi km ) Precip ( " mm )
12:11 am 00:11 Partly Cloudy 76 24.4 73 22.8 91 91 Calm 29.91 1013 10 16 0.00 0.00
12:20 am 00:20 Mostly Cloudy 77 25 73 22.8 88 88 Calm 29.91 1013 10 16 0.00 0.00
12:30 am 00:30 Partly Cloudy 76 24.4 73 22.8 91 91 S 3 6 29.91 1013 10 16 0.00 0.00
12:53 am 00:53 Clear 76 24.4 73 22.8 91 91 Calm 29.89 1012 10 16 0.00 0.00
1:53 am 01:53 Clear 75 23.9 73 22.8 94 94 WSW 5 7 29.88 1012 10 16 0.00 0.00
2:53 am 02:53 Clear 75 23.9 72 22.2 90 90 Calm 29.89 1012 10 16 0.00 0.00
3:53 am 03:53 Clear 73 22.8 71 21.7 94 94 Calm 29.90 1012 10 16 0.00 0.00
4:24 am 04:24 Mostly Cloudy 74 23.3 71 21.7 91 91 Calm 29.90 1013 10 16 0.00 0.00
4:43 am 04:43 Partly Cloudy 74 23.3 71 21.7 91 91 Calm 29.91 1013 8 13 0.00 0.00
4:53 am 04:53 Clear 73 22.8 71 21.7 94 94 Calm 29.91 1013 9 14 0.00 0.00
5:53 am 05:53 Partly Cloudy 73 22.8 71 21.7 94 94 WSW 3 6 29.93 1013 10 16 0.00 0.00
6:04 am 06:04 Mostly Cloudy 73 22.8 71 21.7 94 94 Calm 29.93 1014 10 16 0.00 0.00
6:53 am 06:53 Cloudy 74 23.3 72 22.2 94 94 SW 3 6 29.94 1014 10 16 0.00 0.00
7:04 am 07:04 Cloudy 74 23.3 72 22.2 94 94 SW 3 6 29.95 1014 8 13 0.00 0.00
7:53 am 07:53 Cloudy 76 24.4 73 22.8 91 91 N 3 6 29.94 1014 10 16 0.00 0.00
8:53 am 08:53 Cloudy 77 25 73 22.8 88 88 N 3 6 29.94 1014 10 16 0.00 0.00
9:00 am 09:00 Cloudy 77 25 73 22.8 88 88 NNE 3 6 29.94 1014 10 16 0.00 0.00
9:53 am 09:53 Cloudy 79 26.1 73 22.8 82 82 S 5 7 29.93 1013 10 16 0.00 0.00
10:01 am 10:01 Cloudy 79 26.1 73 22.8 82 82 S 3 6 29.92 1013 10 16 0.00 0.00
10:49 am 10:49 Cloudy 81 27 73 23 79 79 VRB 5 7 29.93 1014 10 16 0.00 0.00
10:53 am 10:53 Cloudy 82 27.8 73 22.8 74 74 VRB 3 6 29.94 1014 10 16 0.00 0.00
11:21 am 11:21 Partly Cloudy 82 27.8 73 22.8 74 74 VRB 3 6 29.94 1014 10 16 0.00 0.00
11:53 am 11:53 Mostly Sunny 85 29.4 72 22.2 65 65 Calm 29.95 1014 10 16 0.00 0.00
12:53 pm 12:53 Sunny 88 31.1 71 21.7 57 57 E 6 9 29.93 1014 10 16 0.00 0.00
1:53 pm 13:53 Sunny 89 31.7 71 21.7 55 55 S 3 6 29.91 1013 10 16 0.00 0.00
2:53 pm 14:53 Sunny 90 32.2 74 23.3 59 59 VRB 5 7 29.89 1012 10 16 0.00 0.00
3:53 pm 15:53 Sunny 92 33.3 72 22.2 52 52 WNW 5 7 29.88 1012 10 16 0.00 0.00
4:53 pm 16:53 Sunny 89 31.7 74 23.3 61 61 NE 3 6 29.86 1011 10 16 0.00 0.00
5:53 pm 17:53 Mostly Cloudy 90 32.2 73 22.8 58 58 SSW 7 11 29.86 1011 10 16 0.00 0.00
6:53 pm 18:53 Sunny 88 31.1 73 22.8 61 61 SW 6 9 29.86 1011 10 16 0.00 0.00
7:53 pm 19:53 Sunny 85 29.4 73 22.8 68 68 SW 6 9 29.86 1011 10 16 0.00 0.00
8:53 pm 20:53 Clear 83 28.3 74 23.3 74 74 S 3 6 29.86 1011 10 16 0.00 0.00
9:53 pm 21:53 Clear 80 26.7 75 23.9 85 85 Calm 29.87 1012 10 16 0.00 0.00
10:53 pm 22:53 Clear 80 26.7 75 23.9 85 85 Calm 29.89 1012 10 16 0.00 0.00
11:53 pm 23:53 Partly Cloudy 79 26.1 75 23.9 88 88 Calm 29.91 1013 10 16 0.00 0.00

Powered by AerisWeather